Zurück zum Katalog

COSMOS 1326

AktivMilitärLEO
NORAD 12981·PAYLOAD·🇷🇺 Russia

Gestartet Nov 28, 1981 von Plesetsk Cosmodrome

Loading…

Nächste Überflüge (nächste 24 Stunden)

TLE

AktuellSource: Space-Track

Epoche: Sep 14, 2026, 13:21 UTC

1 12981U 81116G   26257.55637140 -.00000005  00000-0  80727-4 0  9995
2 12981  73.9828 195.0603 0082132  20.3542 153.6819 12.30857161993161

Verfolge COSMOS 1326 in Echtzeit mit AllMySat

Download on the App Store